Printer-friendly version

IAU Minor Planet Center

Minor Planet Center

MPEC 2007-U14 : 2007 UJ

The following Minor Planet Electronic Circular may be linked-to from your own Web pages, but must not otherwise be redistributed electronically.


Read MPEC 2007-U13 Read MPEC 2007-U15


M.P.E.C. 2007-U14                                Issued 2007 Oct. 16, 23:16 UT

     The Minor Planet Electronic Circulars contain information on unusual
         minor planets and routine data on comets.  They are published
   on behalf of Commission 20 of the International Astronomical Union by the
          Minor Planet Center, Smithsonian Astrophysical Observatory,
                          Cambridge, MA 02138, U.S.A.

             Prepared using the Tamkin Foundation Computer Network

                              MPC@CFA.HARVARD.EDU
          URL http://www.cfa.harvard.edu/iau/mpc.html  ISSN 1523-6714

                                    2007 UJ

Observations:
     K07U00J* C2007 10 16.35162 02 49 54.51 +23 03 27.0                 EU014G96
     K07U00J  C2007 10 16.36182 02 49 37.63 +23 14 18.6                 EU014G96
     K07U00J  C2007 10 16.37207 02 49 20.71 +23 25 12.5                 EU014G96
     K07U00J  C2007 10 16.38237 02 49 03.61 +23 36 10.1                 EU014G96
     K07U00J  C2007 10 16.39211 02 48 47.41 +23 46 30.9          17.8 V EU014G96
     K07U00J  C2007 10 16.39236 02 48 47.01 +23 46 46.2          17.9 V EU014G96
     K07U00J  C2007 10 16.39261 02 48 46.58 +23 47 02.6          18.0 V EU014G96
     K07U00J  C2007 10 16.39286 02 48 46.15 +23 47 18.5          18.0 V EU014G96
     K07U00J  C2007 10 16.41692 02 48 05.99 +24 12 51.6          18.0 V EU014G96
     K07U00J  C2007 10 16.42560 02 47 51.49 +24 22 04.1          18.2 V EU014G96
     K07U00J  C2007 10 16.43424 02 47 37.01 +24 31 14.8          18.2 V EU014G96
     K07U00J  C2007 10 16.44288 02 47 22.56 +24 40 23.5          18.3 V EU014G96
     K07U00J  C2007 10 16.45130 02 47 08.21 +24 49 25.6          18.6 R EU014651
     K07U00J  C2007 10 16.45177 02 47 07.47 +24 49 55.1          18.5 R EU014651
     K07U00J  C2007 10 16.45223 02 47 06.73 +24 50 24.9          18.7 R EU014651
     K07U00J  C2007 10 16.51053 02 45 29.41 +25 52 00.3          17.8 V EU014G96
     K07U00J  C2007 10 16.51076 02 45 29.05 +25 52 14.3          17.8 V EU014G96
     K07U00J  C2007 10 16.51098 02 45 28.69 +25 52 28.3          17.8 V EU014G96
     K07U00J  C2007 10 16.51120 02 45 28.33 +25 52 42.6          17.8 V EU014G96
     K07U00J  C2007 10 16.86749 02 36 08.98 +32 12 19.2          17.7 V EU014B03
     K07U00J  C2007 10 16.87281 02 35 59.06 +32 18 01.7          18.1 V EU014B03
     K07U00J  C2007 10 16.87289 02 35 58.91 +32 18 06.6          18.3 V EU014B03

Observer details:
651 Grasslands Observatory, Tucson.  Observer J. E. McGaha.  0.62-m f/5.1
    Newtonian reflector + CCD.
B03 Alter Satzberg, Vienna.  Observer M. Pietschnig.  0.35-m f/7
    Schmidt-Cassegrain + CCD.
G96 Mt. Lemmon Survey.  Observer R. A. Kowalski.  Measurers E. C. Beshore,
    A. Boattini, G. J. Garradd, A. R. Gibbs, A. D. Grauer, R. E. Hill,
    R. A. Kowalski, S. M. Larson, R. H. McNaught.  1.5-m reflector + CCD.

Orbital elements:
2007 UJ                                                  Earth MOID = 0.0200 AU
Epoch 2007 Oct. 27.0 TT = JDT 2454400.5                 MPC
M 336.24526              (2000.0)            P               Q
n   0.80457517     Peri.   42.72732     +0.43665329     -0.88725725
a   1.1448756      Node    22.66486     +0.68552462     +0.22112803
e   0.1405344      Incl.   22.69744     +0.58257180     +0.40481721
P   1.23           H   25.3           G   0.15           U   7
Residuals in seconds of arc
071016 G96  0.2+  0.1-    071016 G96  0.1-  0.3-    071016 G96  0.1-  0.4-
071016 G96  0.6-  0.3+    071016 G96  0.2+  0.6-    071016 G96  0.0   0.3-
071016 G96  0.0   0.0     071016 G96  0.1-  0.2+    071016 G96  0.1+  0.0
071016 G96  0.0   0.5+    071016 G96  0.2+  0.9-    071016 B03  0.5-  0.2+
071016 G96  0.0   0.1+    071016 651  0.5-  0.8+    071016 B03  0.2+  0.1+
071016 G96  0.2+  0.6-    071016 651  0.1+  0.5+    071016 B03  0.2+  0.2-
071016 G96  0.1+  0.1-    071016 651  0.6+  1.0+
071016 G96  0.1-  0.1-    071016 G96  0.4-  0.2+

Ephemeris:
2007 UJ                  a,e,i = 1.14, 0.14, 23                  q = 0.9840
Date    TT    R. A. (2000) Decl.     Delta      r     Elong.  Phase     V
2007 10 17    02 31.90   +34 34.0    0.0217   1.016   150.3    29.1    18.3
2007 10 18    01 54.45   +50 39.1    0.0235   1.014   138.4    40.7    18.8
2007 10 19    01 00.73   +62 28.8    0.0271   1.013   126.9    51.9    19.4
2007 10 20    23 48.20   +69 36.4    0.0319   1.011   118.0    60.4    20.0
2007 10 21    22 25.65   +72 50.2    0.0374   1.010   111.4    66.6    20.5
2007 10 22    21 11.68   +73 30.0    0.0434   1.009   106.5    71.2    21.0
2007 10 23    20 16.29   +72 53.8    0.0496   1.007   102.7    74.5    21.4
2007 10 24    19 37.53   +71 50.2    0.0560   1.006    99.8    77.1    21.7
2007 10 25    19 10.35   +70 41.5    0.0626   1.005    97.5    79.0    22.0
2007 10 26    18 50.75   +69 36.0    0.0692   1.003    95.6    80.5    22.3
2007 10 27    18 36.14   +68 36.5    0.0758   1.002    94.0    81.7    22.6

Timothy B. Spahr             (C) Copyright 2007 MPC           M.P.E.C. 2007-U14

Read MPEC 2007-U13 Read MPEC 2007-U15


Our Web policy. Index to the CBAT/MPC/ICQ pages.


Valid HTML 4.01!